Sivas, Turkey

3:23 PM +03 on May 24, 2018 (GMT +0300)
Sivas

Weather History for LTAR - September, 2012

Change the Weather History Date:

Saturday, September 8, 2012

  Actual Average Record
Temperature  
Mean Temperature 64 °F -  
Max Temperature 79 °F 73 °F - ()
Min Temperature 48 °F 44 °F - ()
Degree Days  
Heating Degree Days 2    
Growing Degree Days 14 (Base 50)    
Moisture  
Dew Point 38 °F    
Average Humidity 53    
Maximum Humidity 93    
Minimum Humidity 10    
Precipitation  
Precipitation 0.00 in 0.03 in - ()
Sea Level Pressure  
Sea Level Pressure 30.06 in    
Wind  
Wind Speed 7 mph ()    
Max Wind Speed 20 mph    
Max Gust Speed 23 mph    
Visibility 9.0 miles    
Events      
T = Trace of Precipitation, MM = Missing Value Source: Averaged Metar Reports

Daily Weather History Graph

Daily Weather History Graph

Search for Another Location

Airport or City:

Astronomy

Sep. 08, 2012 Rise Set
Actual Time 6:07 AM EEST 6:52 PM EEST
Civil Twilight 5:39 AM EEST 7:19 PM EEST
Nautical Twilight 5:07 AM EEST 7:51 PM EEST
Astronomical Twilight 4:33 AM EEST 8:25 PM EEST
Moon 11:20 PM EEST (9/8) 1:30 PM EEST (9/8)
Length of Visible Light 13h 39m
Length of Day
12h 45m
Waning Gibbous, 52% of the Moon is Illuminated
Sep 8
Waning Gibbous
Sep 8
Last Quarter
Sep 16
New
Sep 22
First Quarter
Sep 30
Full

Hourly Weather History & Observations

Time (EEST) Temp. Windchill Dew Point Humidity Pressure Visibility Wind Dir Wind Speed Gust Speed Precip Events Conditions
12:50 AM 48.2 °F - 41.0 °F 76% 30.06 in - North 5.8 mph - N/A   Clear
1:50 AM 46.4 °F 42.9 °F 33.8 °F 62% 30.06 in - NE 6.9 mph - N/A   Clear
2:50 AM 48.2 °F - 28.4 °F 46% 30.06 in - East 2.3 mph - N/A   Clear
3:00 AM 53 °F - 40 °F 52%  in 9 mi Calm Calm - -  
3:50 AM 44.6 °F 42.2 °F 33.8 °F 66% 30.06 in - North 4.6 mph - N/A   Clear
4:50 AM 44.6 °F 43.1 °F 39.2 °F 81% 30.06 in - North 3.5 mph - N/A   Clear
5:50 AM 42.8 °F 38.6 °F 41.0 °F 93% 30.06 in - NNW 6.9 mph - N/A   Clear
7:50 AM 50.0 °F - 41.0 °F 71% 30.06 in - North 8.1 mph - N/A   Clear
8:50 AM 57.2 °F - 41.0 °F 55% 30.06 in - North 9.2 mph - N/A   Clear
9:00 AM 60 °F - 40 °F 35%  in 9 mi Calm Calm - -  
9:50 AM 62.6 °F - 32.0 °F 32% 30.06 in - NE 9.2 mph - N/A   Clear
10:50 AM 66.2 °F - 28.4 °F 24% 30.06 in - NE 11.5 mph 23.0 mph N/A   Clear
11:50 AM 68.0 °F - 21.2 °F 17% 30.06 in - North 12.7 mph - N/A   Clear
12:50 PM 69.8 °F - 19.4 °F 15% 30.06 in - NNE 12.7 mph - N/A   Clear
1:50 PM 69.8 °F - 30.2 °F 23% 30.04 in - North 11.5 mph - N/A   Clear
2:50 PM 69.8 °F - 35.6 °F 28% 30.04 in - NNE 15.0 mph - N/A   Clear
3:00 PM 77 °F - 31 °F 10%  in 9 mi North 6.9 mph - -  
3:50 PM 68.0 °F - 41.0 °F 37% 30.04 in - North 18.4 mph - N/A   Clear
4:50 PM 64.4 °F - 41.0 °F 42% 30.04 in - NNE 19.6 mph - N/A   Clear
5:50 PM 62.6 °F - 42.8 °F 48% 30.06 in - North 16.1 mph - N/A   Clear
6:50 PM 57.2 °F - 44.6 °F 63% 30.06 in - North 12.7 mph - N/A   Clear
7:50 PM 53.6 °F - 46.4 °F 77% 30.06 in - North 11.5 mph - N/A   Clear
8:50 PM 51.8 °F - 46.4 °F 82% 30.09 in - North 10.4 mph - N/A   Clear
9:00 PM 60 °F - 44 °F 45%  in 9 mi North 2.3 mph - -  
9:50 PM 50.0 °F - 44.6 °F 82% 30.09 in - North 9.2 mph - N/A   Clear
10:50 PM 48.2 °F - 44.6 °F 87% 30.09 in - North 11.5 mph - N/A   Clear
11:50 PM 48.2 °F - 42.8 °F 82% 30.09 in - North 10.4 mph - N/A   Clear